CW9804 Weather Reports


Display with metric or nautical units.
time (UTC)temp
F
wind
direction
speed
MPH
gust
MPH
rain 1hr
in
rain 24hr
in
rain mn
in
humidity
%
barometer
mb
20181120160130 33 82 1.0 3.0 0.00 2.17 0.41 81 1011.9
20181120155633 33 97 1.0 3.0 0.00 2.17 0.41 81 1011.8
20181120155146 33 121 1.0 2.0 0.00 2.17 0.41 81 1011.7
20181120154628 33 121 0.0 2.0 0.00 2.17 0.41 80 1011.6
20181120154139 33 121 0.0 2.0 0.00 2.17 0.41 80 1011.7
20181120153629 34 121 0.0 1.0 0.00 2.17 0.41 80 1011.6
20181120153125 34 121 0.0 2.0 0.00 2.17 0.41 80 1011.4
20181120152633 34 121 0.0 4.0 0.00 2.17 0.41 80 1011.4
20181120152147 34 121 1.0 4.0 0.00 2.17 0.41 80 1011.3
20181120151630 34 132 1.0 2.0 0.00 2.17 0.41 80 1011.3
20181120151152 34 149 0.0 2.0 0.00 2.17 0.41 80 1011.3
20181120150632 34 148 1.0 3.0 0.00 2.17 0.41 80 1011.3
20181120150129 34 178 1.0 3.0 0.00 2.17 0.41 80 1011.4
20181120145625 34 162 2.0 4.0 0.00 2.17 0.41 80 1011.4
20181120145140 34 153 2.0 3.0 0.00 2.17 0.41 80 1011.5
20181120144630 34 163 0.0 0.0 0.00 2.17 0.41 80 1011.4
20181120144125 34 160 0.0 0.0 0.00 2.17 0.41 80 1011.5
20181120143637 34 160 0.0 0.0 0.00 2.17 0.41 80 1011.4
20181120143152 34 160 0.0 0.0 0.00 2.17 0.41 80 1011.4
20181120142631 34 160 0.0 0.0 0.00 2.17 0.41 80 1011.4
20181120142126 34 160 0.0 0.0 0.00 2.17 0.41 80 1011.4
20181120141636 34 160 0.0 0.0 0.00 2.17 0.41 80 1011.4
20181120141125 34 160 0.0 0.0 0.00 2.17 0.41 80 1011.4
20181120140634 34 160 0.0 0.0 0.00 2.17 0.41 80 1011.4
20181120140132 34 160 0.0 0.0 0.00 2.17 0.41 80 1011.3
20181120135633 34 160 0.0 0.0 0.00 2.20 0.41 79 1011.4
20181120135149 34 160 0.0 0.0 0.00 2.20 0.41 79 1011.4
20181120134633 34 160 0.0 0.0 0.00 2.20 0.41 79 1011.4
20181120134126 34 160 0.0 0.0 0.00 2.20 0.41 79 1011.6
20181120133634 34 160 0.0 0.0 0.00 2.20 0.41 79 1011.6
20181120133130 34 160 0.0 0.0 0.00 2.20 0.41 79 1011.6
20181120132634 34 160 0.0 0.0 0.00 2.20 0.41 79 1011.7
20181120132129 34 160 0.0 0.0 0.00 2.20 0.41 79 1011.6
20181120131638 34 160 0.0 0.0 0.00 2.20 0.41 79 1011.7
20181120131150 35 160 0.0 0.0 0.00 2.20 0.41 79 1011.8
20181120130633 35 160 0.0 0.0 0.00 2.20 0.41 79 1011.8
20181120130130 35 160 0.0 0.0 0.00 2.20 0.41 78 1011.8
20181120125634 35 160 0.0 0.0 0.00 2.24 0.41 78 1011.8
20181120125149 35 160 0.0 0.0 0.00 2.24 0.41 78 1011.9
20181120124626 35 160 0.0 0.0 0.00 2.24 0.41 79 1011.8
20181120124138 35 160 0.0 0.0 0.00 2.24 0.41 78 1011.9
20181120123628 35 160 0.0 0.0 0.00 2.24 0.41 78 1011.9
20181120123127 35 160 0.0 0.0 0.00 2.24 0.41 78 1012.0
20181120122634 35 160 0.0 0.0 0.00 2.24 0.41 78 1012.0
20181120122127 35 160 0.0 2.0 0.00 2.24 0.41 78 1012.0
20181120121639 35 182 0.0 3.0 0.00 2.24 0.41 78 1012.0
20181120121131 35 182 0.0 4.0 0.00 2.24 0.41 78 1012.0
20181120120641 35 182 2.0 4.0 0.00 2.24 0.41 78 1012.0
20181120120135 35 170 1.0 4.0 0.00 2.24 0.41 78 1011.9
20181120115637 35 163 3.0 5.0 0.00 2.28 0.41 78 1011.8
20181120115151 35 172 3.0 5.0 0.00 2.28 0.41 78 1011.7
20181120114632 35 165 1.0 4.0 0.00 2.28 0.41 78 1011.9
20181120114147 35 169 2.0 4.0 0.00 2.28 0.41 78 1011.7
20181120113628 35 217 1.0 4.0 0.00 2.28 0.41 78 1011.7
20181120113125 35 184 2.0 4.0 0.00 2.28 0.41 78 1011.7
20181120112632 35 166 2.0 3.0 0.00 2.28 0.41 78 1011.7
20181120112126 35 156 1.0 4.0 0.00 2.28 0.41 78 1011.8
20181120111632 35 165 2.0 4.0 0.00 2.28 0.41 78 1012.1
20181120111125 35 186 3.0 4.0 0.00 2.28 0.41 78 1012.0
20181120110632 35 169 2.0 4.0 0.00 2.28 0.41 78 1012.0
20181120110131 35 190 3.0 4.0 0.00 2.28 0.41 78 1011.8
20181120105633 35 184 2.0 4.0 0.00 2.36 0.41 78 1012.0
20181120105127 35 194 2.0 4.0 0.00 2.36 0.41 77 1011.9
20181120104638 35 195 3.0 4.0 0.00 2.36 0.41 77 1011.9
20181120104129 35 196 1.0 3.0 0.00 2.36 0.41 78 1011.8
20181120103632 35 155 1.0 4.0 0.00 2.36 0.41 78 1011.9
20181120103126 35 190 2.0 4.0 0.00 2.36 0.41 78 1012.1
20181120102632 34 200 3.0 4.0 0.00 2.36 0.41 78 1012.3
20181120102148 34 212 3.0 4.0 0.00 2.36 0.41 79 1012.2
20181120101633 34 207 2.0 4.0 0.00 2.36 0.41 78 1012.2
20181120101127 34 207 2.0 4.0 0.00 2.36 0.41 78 1012.3
20181120100636 34 207 3.0 4.0 0.00 2.36 0.41 79 1012.4
20181120100131 34 192 2.0 4.0 0.00 2.36 0.41 79 1012.5
20181120095634 34 211 3.0 4.0 0.00 2.40 0.41 79 1012.4
20181120095126 34 234 2.0 5.0 0.00 2.40 0.41 79 1012.5
20181120094635 34 222 3.0 5.0 0.04 2.40 0.41 78 1012.5
20181120094150 34 217 3.0 5.0 0.04 2.40 0.41 79 1012.5
20181120093633 34 202 2.0 4.0 0.04 2.40 0.41 79 1012.5
20181120093151 34 207 3.0 5.0 0.08 2.40 0.41 78 1012.5
20181120092631 34 212 3.0 5.0 0.08 2.40 0.41 78 1012.6
20181120092125 34 198 2.0 3.0 0.08 2.40 0.41 79 1012.4
20181120091636 34 182 2.0 3.0 0.12 2.40 0.41 79 1012.5
20181120091131 34 205 3.0 3.0 0.16 2.40 0.41 79 1012.6
20181120090636 34 94 0.0 0.0 0.16 2.40 0.41 79 1012.6
20181120090134 34 94 0.0 2.0 0.20 2.40 0.41 78 1012.5
20181120085634 34 94 0.0 2.0 0.20 2.44 0.41 79 1012.5
20181120085148 34 94 1.0 2.0 0.24 2.44 0.41 79 1012.5
20181120084632 34 94 1.0 2.0 0.20 2.40 0.40 79 1012.6
20181120084125 34 94 0.0 0.0 0.24 2.40 0.40 79 1012.6
20181120083637 34 94 0.0 0.0 0.24 2.40 0.40 80 1012.7
20181120083130 33 94 0.0 0.0 0.24 2.36 0.39 80 1012.6
20181120082630 33 94 0.0 0.0 0.24 2.36 0.39 80 1012.7
20181120082142 33 94 0.0 0.0 0.28 2.36 0.39 80 1012.7
20181120081641 33 94 0.0 0.0 0.24 2.32 0.39 80 1012.7
20181120081152 33 94 0.0 0.0 0.24 2.28 0.38 80 1012.7
20181120080632 33 94 0.0 0.0 0.28 2.28 0.38 80 1012.7
20181120080146 33 94 0.0 0.0 0.28 2.24 0.37 80 1012.8
20181120075644 33 93 0.0 0.0 0.31 2.24 0.37 80 1012.7
20181120075136 33 93 0.0 0.0 0.31 2.20 0.36 80 1012.7
20181120074641 33 93 0.0 0.0 0.35 2.20 0.36 80 1012.8
20181120074131 33 94 0.0 0.0 0.35 2.17 0.35 80 1012.8
20181120073640 33 93 0.0 0.0 0.35 2.17 0.35 79 1012.7
20181120073133 33 93 0.0 0.0 0.35 2.13 0.35 79 1012.4
20181120072640 33 93 0.0 0.0 0.39 2.13 0.35 79 1012.6
20181120072130 33 93 0.0 0.0 0.39 2.09 0.34 79 1012.5
20181120071640 33 93 0.0 0.0 0.43 2.09 0.34 79 1012.6
20181120071151 33 94 0.0 0.0 0.47 2.05 0.33 79 1012.4
20181120070628 33 94 0.0 0.0 0.43 1.97 0.31 80 1012.5
20181120070145 33 94 0.0 0.0 0.47 1.97 0.31 80 1012.5
20181120065644 33 94 0.0 0.0 0.51 1.93 0.31 80 1012.6
20181120065137 33 93 0.0 0.0 0.51 1.89 0.30 80 1012.5
20181120064645 33 93 0.0 0.0 0.51 1.85 0.29 80 1012.4
20181120064136 33 93 0.0 0.0 0.55 1.81 0.28 80 1012.4
20181120063643 33 93 0.0 0.0 0.59 1.77 0.28 80 1012.3
20181120063138 33 93 0.0 1.0 0.67 1.77 0.28 80 1012.3
20181120062638 33 93 0.0 3.0 0.75 1.73 0.27 80 1012.2
20181120062130 32 93 1.0 3.0 0.79 1.69 0.26 80 1012.1
20181120061639 32 91 0.0 3.0 0.83 1.61 0.24 80 1012.2
20181120061150 32 117 1.0 7.0 0.91 1.57 0.24 80 1012.3
20181120060631 32 103 1.0 4.0 0.98 1.54 0.23 81 1012.3
20181120060146 32 92 2.0 5.0 1.02 1.50 0.22 81 1012.3
20181120055642 32 110 1.0 5.0 0.98 1.42 0.20 81 1012.2
20181120055134 32 121 2.0 6.0 0.98 1.38 0.20 81 1012.2
20181120054640 32 85 2.0 4.0 0.94 1.34 0.19 81 1012.2
20181120054151 32 138 1.0 7.0 0.87 1.26 0.17 81 1012.2
20181120053654 32 135 3.0 8.0 0.79 1.18 0.16 81 1012.2
20181120053137 32 122 3.0 9.0 0.67 1.06 0.14 81 1012.2
20181120052641 32 47 2.0 6.0 0.59 0.98 0.12 81 1012.3
20181120052130 32 121 1.0 4.0 0.51 0.91 0.10 81 1012.2
20181120051638 32 136 2.0 4.0 0.39 0.79 0.08 81 1012.0
20181120051129 32 100 1.0 3.0 0.28 0.67 0.06 81 1012.0
20181120050632 32 98 1.0 4.0 0.16 0.55 0.03 81 1012.1
20181120050145 32 115 1.0 4.0 0.08 0.47 0.02 81 1012.0
20181120045642 32 53 1.0 5.0 0.04 0.43 0.01 81 1012.0
20181120045133 32 49 1.0 7.0 0.00 0.39 0.00 81 1012.1
20181120044641 32 107 1.0 6.0 0.00 0.39 0.00 81 1012.2
20181120044151 32 101 2.0 4.0 0.00 0.39 0.00 81 1012.2
20181120043628 32 128 1.0 7.0 0.00 0.39 0.00 81 1012.3
20181120043140 32 136 2.0 7.0 0.00 0.39 0.00 81 1012.4
20181120042641 32 98 1.0 10.0 0.00 0.39 0.00 81 1012.5
20181120042131 32 120 3.0 10.0 0.00 0.39 0.00 81 1012.5
20181120041639 32 109 4.0 9.0 0.00 0.39 0.00 81 1012.4
20181120041126 32 63 3.0 9.0 0.00 0.39 0.00 81 1012.5
20181120040633 32 69 2.0 9.0 0.00 0.39 0.00 81 1012.6
20181120040137 32 111 3.0 11.0 0.00 0.39 0.00 81 1012.6
20181120035635 32 117 4.0 11.0 0.00 0.39 0.00 81 1012.5
20181120035140 32 149 4.0 9.0 0.00 0.39 0.00 81 1012.7
20181120034654 32 117 3.0 7.0 0.00 0.39 0.00 81 1012.6
20181120034149 32 54 2.0 9.0 0.00 0.39 0.00 81 1012.7
20181120033627 32 97 4.0 9.0 0.00 0.39 0.00 81 1012.7
20181120033139 32 88 2.0 7.0 0.00 0.39 0.00 81 1012.9
20181120032642 32 78 2.0 7.0 0.00 0.39 0.00 81 1012.9
20181120032136 32 66 2.0 7.0 0.00 0.39 0.00 81 1013.0
20181120031642 32 59 2.0 7.0 0.00 0.39 0.00 81 1012.9
20181120031132 32 98 2.0 6.0 0.00 0.39 0.00 81 1013.0
20181120030634 32 98 3.0 6.0 0.00 0.39 0.00 81 1013.3
20181120030130 32 109 2.0 8.0 0.00 0.39 0.00 81 1013.0
20181120025653 32 113 3.0 8.0 0.00 0.43 0.00 81 1013.1
20181120025132 32 120 1.0 7.0 0.00 0.43 0.00 81 1013.2
20181120024640 32 78 1.0 4.0 0.00 0.43 0.00 81 1013.3
20181120024127 32 57 1.0 7.0 0.00 0.43 0.00 81 1013.2
20181120023635 32 116 1.0 7.0 0.00 0.43 0.00 81 1013.3
20181120023143 32 107 1.0 5.0 0.00 0.43 0.00 81 1013.4
20181120022627 32 113 2.0 6.0 0.00 0.43 0.00 81 1013.4
20181120022138 32 49 1.0 4.0 0.00 0.43 0.00 81 1013.4
20181120021644 32 67 1.0 6.0 0.00 0.43 0.00 81 1013.5
20181120021132 32 109 2.0 6.0 0.00 0.43 0.00 81 1013.8
20181120020636 32 59 1.0 6.0 0.00 0.43 0.00 81 1013.7
20181120020131 33 87 2.0 6.0 0.00 0.43 0.00 81 1013.9
20181120015628 33 71 2.0 8.0 0.00 0.43 0.00 81 1013.9
20181120015135 33 37 1.0 8.0 0.00 0.43 0.00 81 1013.8
20181120014642 33 80 2.0 9.0 0.00 0.43 0.00 81 1013.6
20181120014130 33 71 3.0 12.0 0.00 0.43 0.00 81 1013.6
20181120013637 33 52 3.0 9.0 0.00 0.43 0.00 81 1013.6
20181120013151 33 107 4.0 9.0 0.00 0.43 0.00 81 1013.7
20181120012645 33 324 3.0 11.0 0.00 0.43 0.00 81 1013.9
20181120012136 32 123 3.0 11.0 0.00 0.43 0.00 81 1013.9
20181120011644 32 116 3.0 8.0 0.00 0.43 0.00 81 1013.9
20181120011128 32 120 2.0 8.0 0.00 0.43 0.00 81 1014.0
20181120010633 32 108 2.0 9.0 0.00 0.43 0.00 81 1014.1
20181120010147 32 113 2.0 9.0 0.00 0.43 0.00 81 1013.9
20181120005641 33 101 2.0 9.0 0.00 0.47 0.00 81 1014.1
20181120005131 33 59 2.0 9.0 0.00 0.47 0.00 81 1014.2
20181120004637 33 91 3.0 9.0 0.00 0.47 0.00 81 1014.3
20181120004151 33 121 2.0 8.0 0.00 0.47 0.00 81 1014.3
20181120003628 33 104 3.0 8.0 0.00 0.47 0.00 81 1014.3
20181120003138 33 83 2.0 7.0 0.00 0.47 0.00 81 1014.4
20181120002643 32 75 2.0 7.0 0.00 0.47 0.00 81 1014.4
20181120002135 33 84 2.0 6.0 0.00 0.47 0.00 81 1014.3
20181120001645 33 24 2.0 8.0 0.00 0.47 0.00 81 1014.3
20181120001134 33 58 2.0 8.0 0.00 0.47 0.00 81 1014.4
20181120000640 33 47 2.0 5.0 0.00 0.47 0.00 81 1014.4
20181120000131 33 72 1.0 9.0 0.00 0.47 0.00 81 1014.4
20181119235630 33 51 3.0 9.0 0.00 0.47 0.00 81 1014.3
20181119235136 33 84 2.0 7.0 0.00 0.47 0.00 81 1014.5
20181119234625 33 51 2.0 8.0 0.00 0.47 0.00 81 1014.5
20181119234132 33 124 3.0 5.0 0.04 0.47 0.00 80 1014.6
20181119233639 33 62 2.0 7.0 0.04 0.47 0.00 80 1014.6
20181119233130 33 69 2.0 7.0 0.04 0.47 0.00 80 1014.7
20181119232634 33 98 2.0 6.0 0.04 0.47 0.00 80 1014.7
20181119232146 33 50 1.0 6.0 0.04 0.47 0.00 80 1014.7
20181119231629 33 121 2.0 10.0 0.04 0.47 0.00 80 1014.7
20181119231135 33 103 3.0 10.0 0.04 0.47 0.00 80 1014.6
20181119230651 33 121 3.0 6.0 0.04 0.47 0.00 80 1014.7
20181119230138 33 115 3.0 5.0 0.04 0.47 0.00 80 1014.7
20181119225633 33 79 1.0 4.0 0.04 0.47 0.09 80 1014.8
20181119225147 33 120 2.0 7.0 0.04 0.47 0.09 80 1014.9
20181119224629 33 102 3.0 7.0 0.04 0.47 0.09 80 1014.9
20181119224123 33 161 2.0 9.0 0.00 0.43 0.09 80 1015.0
20181119223631 33 130 3.0 9.0 0.04 0.43 0.09 81 1015.0
20181119223143 33 78 3.0 9.0 0.04 0.43 0.09 81 1015.1
20181119222630 33 70 2.0 7.0 0.04 0.43 0.09 80 1015.1
20181119222125 33 24 3.0 7.0 0.04 0.43 0.09 81 1015.2
20181119221635 33 116 2.0 6.0 0.04 0.43 0.09 81 1015.2
20181119221147 33 117 2.0 4.0 0.04 0.43 0.09 81 1015.2
20181119220636 33 126 1.0 4.0 0.04 0.43 0.09 80 1015.3
20181119220131 33 111 1.0 4.0 0.04 0.43 0.09 80 1015.3
20181119215628 33 88 1.0 4.0 0.04 0.43 0.09 80 1015.4
20181119215136 33 61 1.0 4.0 0.04 0.43 0.09 80 1015.3
20181119214643 33 114 1.0 4.0 0.04 0.43 0.09 80 1015.3
20181119214130 33 118 2.0 4.0 0.04 0.43 0.09 80 1015.3
20181119213638 33 107 1.0 3.0 0.00 0.39 0.08 80 1015.4
20181119213131 33 115 1.0 3.0 0.00 0.39 0.08 80 1015.4
20181119212637 33 84 0.0 4.0 0.00 0.39 0.08 80 1015.6
20181119212130 33 70 1.0 4.0 0.00 0.39 0.08 80 1015.6
20181119211636 33 82 1.0 6.0 0.00 0.39 0.08 80 1015.6
20181119211140 33 57 1.0 6.0 0.00 0.39 0.08 80 1015.7
20181119210627 33 66 1.0 6.0 0.00 0.39 0.08 79 1015.8
20181119210141 33 71 2.0 6.0 0.00 0.39 0.08 79 1015.8
20181119205639 33 92 1.0 5.0 0.00 0.39 0.08 79 1016.0
20181119205130 33 101 2.0 5.0 0.00 0.39 0.08 79 1016.1
20181119204638 33 130 2.0 5.0 0.00 0.39 0.08 79 1016.1
20181119204147 33 110 1.0 3.0 0.00 0.39 0.08 78 1016.0
20181119203626 33 105 1.0 4.0 0.00 0.39 0.08 78 1016.0
20181119203136 33 67 1.0 4.0 0.00 0.39 0.08 78 1016.0
20181119202637 33 36 1.0 4.0 0.00 0.39 0.08 78 1016.0
20181119202147 33 55 1.0 9.0 0.00 0.39 0.08 78 1016.0
20181119201646 33 80 4.0 9.0 0.00 0.39 0.08 78 1016.0
20181119201136 33 78 2.0 8.0 0.00 0.39 0.08 78 1016.0
20181119200642 33 90 3.0 10.0 0.00 0.39 0.08 77 1016.1
20181119200135 33 126 4.0 10.0 0.00 0.39 0.08 77 1016.1
20181119195629 33 63 2.0 6.0 0.00 0.39 0.08 77 1016.0
20181119195136 33 101 2.0 7.0 0.00 0.39 0.08 77 1016.1
20181119194644 33 84 2.0 7.0 0.00 0.39 0.08 77 1016.1
20181119194134 33 65 3.0 8.0 0.00 0.39 0.08 77 1016.1
20181119193647 33 117 2.0 7.0 0.00 0.39 0.08 77 1016.0
20181119193136 33 84 2.0 8.0 0.00 0.39 0.08 77 1015.9
20181119192634 33 63 3.0 10.0 0.00 0.39 0.08 77 1016.0
20181119192126 33 71 5.0 11.0 0.00 0.39 0.08 77 1016.0
20181119191632 33 51 4.0 11.0 0.00 0.39 0.08 77 1016.1
20181119191131 33 63 4.0 9.0 0.00 0.39 0.08 77 1016.0
20181119190637 33 74 3.0 11.0 0.00 0.39 0.08 77 1016.1
20181119190145 34 66 5.0 14.0 0.00 0.39 0.08 77 1015.9
20181119185641 34 96 6.0 14.0 0.00 0.39 0.08 77 1015.7
20181119185130 34 124 2.0 11.0 0.00 0.39 0.08 76 1015.9
20181119184638 34 65 5.0 11.0 0.00 0.39 0.08 75 1015.9
20181119184148 34 104 4.0 12.0 0.00 0.39 0.08 75 1016.0
20181119183641 34 63 6.0 12.0 0.00 0.39 0.08 75 1015.9
20181119183134 34 45 3.0 9.0 0.00 0.39 0.08 75 1016.2
20181119182636 34 92 4.0 9.0 0.00 0.39 0.08 75 1016.1
20181119182132 34 39 2.0 9.0 0.00 0.39 0.08 75 1016.0
20181119181642 34 76 2.0 7.0 0.00 0.39 0.08 75 1016.1
20181119181135 34 105 3.0 9.0 0.00 0.39 0.08 75 1016.1
20181119180625 34 107 3.0 10.0 0.04 0.39 0.08 74 1016.1
20181119180140 34 121 3.0 10.0 0.04 0.39 0.08 74 1016.0
20181119175637 34 114 4.0 12.0 0.04 0.39 0.08 74 1015.8
20181119175150 34 62 5.0 12.0 0.04 0.39 0.08 74 1015.6
20181119174632 34 84 2.0 7.0 0.04 0.39 0.08 74 1015.9
20181119174147 34 89 3.0 10.0 0.04 0.39 0.08 74 1016.0
20181119173629 34 81 3.0 10.0 0.04 0.39 0.08 73 1015.9
20181119173124 34 127 3.0 8.0 0.04 0.39 0.08 74 1015.8
20181119172632 34 76 2.0 7.0 0.04 0.39 0.08 74 1015.9
20181119172127 34 71 1.0 8.0 0.04 0.39 0.08 74 1015.9
20181119171639 34 117 2.0 8.0 0.04 0.39 0.08 74 1015.9
20181119171126 34 126 2.0 9.0 0.04 0.39 0.08 74 1015.8
20181119170634 34 144 3.0 9.0 0.00 0.35 0.07 74 1015.7
20181119170133 34 90 2.0 11.0 0.00 0.35 0.07 74 1015.8
20181119165633 34 176 6.0 11.0 0.00 0.35 0.07 74 1015.7
20181119165148 34 111 3.0 9.0 0.00 0.35 0.07 74 1015.6
20181119164632 34 120 2.0 9.0 0.00 0.35 0.07 74 1015.6
20181119164123 34 121 1.0 9.0 0.00 0.35 0.07 74 1015.7
20181119163635 34 57 2.0 9.0 0.00 0.35 0.07 74 1015.5
20181119163131 34 119 3.0 8.0 0.00 0.35 0.07 75 1015.6
20181119162633 34 96 2.0 9.0 0.00 0.35 0.07 74 1015.6
20181119162126 34 82 2.0 9.0 0.00 0.35 0.07 74 1015.7
20181119161636 34 67 3.0 9.0 0.00 0.35 0.07 74 1015.7
20181119161127 34 38 2.0 10.0 0.00 0.35 0.07 74 1015.7
20181119160636 34 130 4.0 10.0 0.00 0.35 0.07 74 1015.6